Weather History for Tuscaloosa, AL

Change the Weather History Date:

Friday, August 2, 2013

  Actual Average Record
Temperature  
Mean Temperature 81 °F 82 °F  
Max Temperature 92 °F 92 °F 100 °F (1957)
Min Temperature 70 °F 72 °F 63 °F (1965)
Cooling Degree Days 15    
Growing Degree Days 30 (Base 50)    
Moisture  
Dew Point 70 °F    
Average Humidity 69    
Maximum Humidity 94    
Minimum Humidity 44    
Precipitation  
Precipitation 0.00 in 0.12 in 2.67 in (1968)
Month to date precipitation 0.23 0.24  
Year to date precipitation 35.03 32.81  
Sea Level Pressure  
Sea Level Pressure 30.00 in    
Wind  
Wind Speed 2 mph (NNW)    
Max Wind Speed 8 mph    
Max Gust Speed 10 mph    
Visibility 8 miles    
Events      
T = Trace of Precipitation, MM = Missing Value Source: NWS Daily Summary

Daily Weather History Graph

Daily Weather History Graph

Search for Another Location

Airport:

Trip Planner

Search our weather history database for the weather conditions in past years. The results will help you decide how hot, cold, wet, or windy it might be!

Date:

Astronomy

Aug. 02, 2013 Rise Set
Actual Time 6:04 AM CDT 7:48 PM CDT
Civil Twilight 5:37 AM CDT 8:15 PM CDT
Nautical Twilight 5:04 AM CDT 8:48 PM CDT
Astronomical Twilight 4:30 AM CDT 9:22 PM CDT
Moon 2:27 AM CDT (8/2) 4:43 PM CDT (8/2)
Length of Visible Light 14h 38m
Length of Day
13h 44m
Waning Crescent, 15% of the Moon is Illuminated
Aug 2
Waning Crescent
Aug 6
New
Aug 14
First Quarter
Aug 20
Full
Aug 28
Last Quarter

Hourly Weather History & Observations

Time (CDT) Temp. Heat Index Dew Point Humidity Pressure Visibility Wind Dir Wind Speed Gust Speed Precip Events Conditions
12:53 AM 75.9 °F - 71.1 °F 85% 29.98 in 9.0 mi Calm Calm - N/A   Clear
1:53 AM 75.0 °F - 71.1 °F 87% 29.96 in 8.0 mi North 3.5 mph - N/A   Clear
2:53 AM 73.0 °F - 70.0 °F 90% 29.96 in 7.0 mi North 3.5 mph - N/A   Clear
3:53 AM 73.0 °F - 70.0 °F 90% 29.96 in 7.0 mi Calm Calm - N/A   Clear
4:53 AM 71.1 °F - 69.1 °F 93% 29.97 in 6.0 mi Calm Calm - N/A   Clear
5:53 AM 71.1 °F - 68.0 °F 90% 29.98 in 6.0 mi Calm Calm - N/A   Clear
6:10 AM 69.8 °F - 68.0 °F 94% 30.00 in 2.0 mi Calm Calm - N/A   Clear
6:19 AM 69.8 °F - 68.0 °F 94% 30.00 in 4.0 mi Calm Calm - N/A   Clear
6:53 AM 72.0 °F - 68.0 °F 87% 29.99 in 6.0 mi Calm Calm - N/A   Clear
7:53 AM 75.9 °F - 69.1 °F 79% 30.01 in 7.0 mi Calm Calm - N/A   Clear
8:53 AM 79.0 °F - 71.1 °F 77% 30.02 in 7.0 mi Calm Calm - N/A   Clear
9:53 AM 82.9 °F 87.5 °F 71.1 °F 67% 30.03 in 7.0 mi Calm Calm - N/A   Clear
10:53 AM 84.9 °F 90.1 °F 71.1 °F 63% 30.03 in 8.0 mi Calm Calm - N/A   Clear
11:53 AM 88.0 °F 93.8 °F 71.1 °F 57% 30.02 in 9.0 mi North 3.5 mph - N/A   Clear
12:53 PM 88.0 °F 92.9 °F 70.0 °F 55% 30.01 in 10.0 mi SSW 3.5 mph - N/A   Clear
1:53 PM 90.0 °F 95.4 °F 70.0 °F 52% 30.01 in 10.0 mi WNW 5.8 mph - N/A   Clear
2:53 PM 90.0 °F 93.6 °F 68.0 °F 48% 30.01 in 10.0 mi Variable 6.9 mph - N/A   Partly Cloudy
3:53 PM 91.0 °F 95.2 °F 68.0 °F 47% 29.98 in 10.0 mi NW 4.6 mph - N/A   Partly Cloudy
4:53 PM 91.0 °F 94.3 °F 66.9 °F 45% 29.98 in 10.0 mi North 6.9 mph - N/A   Scattered Clouds
5:53 PM 90.0 °F 93.6 °F 68.0 °F 48% 29.98 in 10.0 mi North 5.8 mph - N/A   Scattered Clouds
6:53 PM 88.0 °F 90.7 °F 66.9 °F 49% 29.98 in 10.0 mi NNE 4.6 mph - N/A   Clear
7:53 PM 80.1 °F 83.8 °F 72.0 °F 76% 29.99 in 9.0 mi Calm Calm - N/A   Clear
8:53 PM 77.0 °F - 72.0 °F 84% 30.00 in 9.0 mi Calm Calm - N/A   Clear
9:53 PM 77.0 °F - 73.0 °F 88% 30.01 in 8.0 mi Calm Calm - N/A   Clear
10:53 PM 75.0 °F - 73.0 °F 94% 30.02 in 6.0 mi Calm Calm - N/A   Clear
11:53 PM 73.9 °F - 72.0 °F 93% 30.01 in 6.0 mi Calm Calm - N/A   Clear